Temp
69 74 73 71 58 52 47 56 65 69 71 75 82 81 79 80 76 68 81 86 81 77 77 78 79 80 79 79 78 78 78 78 78 78 78 78 78 78 78 78 78 79 79 79 79 79 79 79 78
72 79 72 64 52 44 49 60 65 69 76 83 86 82 77 76 83 78 81 82 82 77 76 77 79 79 79 78 78 78 78 78 78 78 78 78 78 78 78 78 78 79 79 79 79 79 79 78 78
76 78 63 57 49 46 50 62 66 74 80 81 79 86 82 80 84 84 81 82 80 76 76 76 79 79 79 78 78 78 78 78 78 78 78 78 78 77 77 78 78 79 80 80 79 79 78 78 78
76 69 64 53 51 58 61 68 72 75 80 82 84 79 84 88 88 85 82 82 79 76 77 78 78 79 78 78 78 78 78 78 78 78 78 78 78 77 77 77 78 79 80 79 79 79 78 78 77
74 64 53 49 54 62 70 72 72 72 76 79 84 79 79 87 87 83 81 83 79 76 77 77 78 79 79 78 78 77 77 77 78 78 78 77 77 77 77 77 78 78 79 79 79 78 77 77 77
65 64 51 46 56 67 70 73 71 73 76 79 81 81 79 85 83 83 83 82 81 77 76 76 78 78 78 78 78 77 77 77 77 77 77 77 77 77 77 77 77 78 78 78 78 78 77 76 76
62 56 52 55 58 62 69 74 73 73 73 78 82 79 77 81 85 85 85 83 80 78 75 75 76 77 78 78 77 77 76 76 77 76 76 76 76 76 76 76 77 77 77 77 78 77 76 76 76
66 57 52 55 59 60 71 75 74 74 78 86 92 77 73 81 87 84 82 80 78 75 75 73 73 74 74 75 77 77 77 76 76 76 76 76 76 76 76 75 76 77 77 77 77 77 76 76 75
70 50 50 56 61 65 73 70 79 83 78 80 85 85 88 89 86 83 79 75 75 75 72 71 71 71 72 73 76 76 77 77 76 76 76 74 71 72 73 74 75 76 76 76 76 76 76 75 75
60 49 54 65 69 67 72 73 75 76 76 77 80 86 88 88 85 83 79 77 75 76 73 73 72 71 70 77 73 71 73 73 72 71 71 69 68 68 72 73 76 76 76 76 76 76 76 76 69
60 56 63 67 70 72 71 72 77 73 70 76 75 81 86 86 81 80 81 81 80 80 76 74 74 71 72 75 71 70 70 69 69 69 69 68 68 68 70 67 71 69 74 71 73 72 71 69 68
56 64 66 67 71 70 69 74 72 74 74 81 83 83 81 80 76 81 82 84 84 81 80 76 76 74 74 75 71 70 70 69 69 69 68 67 66 66 65 66 66 66 68 67 66 67 68 68 68
57 62 66 69 70 70 72 70 72 73 80 84 85 84 79 78 78 77 78 79 80 79 79 77 75 74 75 74 73 70 71 71 71 69 69 69 67 66 67 66 66 68 65 67 65 66 67 67 68
58 60 62 65 66 68 68 70 72 75 81 81 83 82 81 80 80 77 77 74 75 78 78 76 74 76 76 76 74 75 73 71 69 70 70 70 70 69 68 68 67 67 68 68 68 67 67 67 68
61 53 59 62 63 63 69 64 66 75 78 78 80 82 83 81 82 79 77 77 77 77 77 76 77 78 77 78 76 76 75 74 72 72 71 71 71 70 69 68 68 68 68 68 68 65 65 65 67
54 49 42 57 63 65 64 55 69 74 73 73 76 80 82 80 80 80 79 77 73 76 79 76 83 76 78 78 75 76 75 74 74 74 72 72 71 71 69 69 69 69 68 68 68 67 64 65 65
44 40 46 52 62 62 60 56 65 70 71 72 74 75 79 81 78 77 79 76 80 77 80 80 79 78 76 75 75 74 72 72 73 73 73 73 72 72 71 70 69 68 68 68 68 67 66 63 63
41 42 46 48 57 57 55 55 61 65 65 64 67 71 75 79 81 79 79 79 76 77 76 83 84 83 82 81 79 72 71 71 70 74 73 73 72 72 71 71 69 70 69 67 66 65 65 64 66
50 48 46 52 59 55 53 54 59 62 62 62 64 66 69 72 78 81 78 79 76 73 77 73 73 78 77 71 70 71 76 73 72 72 74 73 73 73 71 71 69 71 70 69 68 65 64 63 64
51 45 45 51 57 55 52 53 60 62 60 61 63 65 65 69 73 79 80 77 74 73 74 73 75 77 77 80 79 74 78 71 75 75 73 73 73 72 72 71 70 70 68 66 66 66 63 63 63
47 44 45 45 52 53 50 48 52 59 60 63 64 64 64 65 68 72 77 78 76 72 70 75 77 77 78 78 75 68 67 66 67 68 68 69 72 73 72 71 72 70 70 67 65 65 65 62 62
41 52 51 48 43 34 49 34 47 53 54 58 61 60 61 65 68 70 73 74 72 74 74 75 77 76 77 76 76 73 70 67 67 68 69 70 71 71 72 71 70 68 67 66 66 66 64 63 62
46 52 47 47 42 36 42 34 43 51 51 55 60 63 65 68 68 69 72 75 75 74 69 71 72 72 73 72 73 74 66 67 65 66 69 68 68 71 71 71 69 68 67 67 67 65 64 66 64
53 46 44 41 36 27 38 37 41 45 50 55 60 63 65 63 67 69 71 72 71 71 70 71 69 69 69 69 69 70 68 67 64 65 65 66 67 68 70 70 69 69 67 67 68 66 65 64 63
45 35 23 23 24 26 41 37 41 50 55 57 54 53 55 57 57 59 63 73 75 69 68 70 72 72 72 72 71 69 70 69 67 66 66 66 66 66 67 68 68 68 68 68 67 66 66 64 63
40 37 25 23 23 29 42 31 40 52 56 53 54 54 56 56 57 58 59 65 72 73 74 71 69 72 71 71 70 70 71 71 69 67 68 70 70 69 69 69 69 69 69 67 67 67 65 64 63
40 33 40 30 34 27 34 41 48 51 50 52 52 54 53 55 56 57 59 66 72 76 70 70 70 72 70 71 71 66 68 69 67 68 69 68 68 69 69 69 68 68 68 68 66 66 64 63 62
43 46 30 28 22 21 30 35 36 42 44 48 49 48 51 56 56 58 58 62 68 68 71 67 68 69 69 68 69 71 69 70 69 68 68 68 68 70 68 67 67 67 69 67 65 64 64 63 62
37 35 34 32 29 20 25 29 42 42 44 44 47 50 50 52 55 58 57 63 67 66 66 67 67 67 66 66 65 66 66 68 69 69 68 68 68 68 68 68 68 69 68 66 64 63 63 63 61
45 38 35 25 25 31 31 30 51 46 46 47 48 50 50 52 55 57 58 62 63 67 66 66 66 65 65 67 68 68 68 69 69 68 68 68 67 68 69 69 70 70 69 65 63 63 64 63 61
MSLP
1009.83 1009.61 1009.78 1009.84 1011.33 1011.96 1011.09 1009.22 1007.08 1005.39 1004.85 1003.17 1002.64 1001.72 1000.96 1001.37 1002.11 1003.15 1001.93 1002.83 1003.42 1004.57 1006.11 1007.04 1007.52 1007.25 1007.40 1007.76 1008.43 1008.99 1009.38 1009.96 1010.39 1010.62 1010.97 1011.40 1011.55 1011.75 1012.05 1012.23 1012.40 1012.61 1012.78 1012.88 1013.15 1013.34 1013.53 1013.60 1013.78
1009.73 1009.53 1009.94 1010.46 1011.56 1012.06 1010.43 1007.99 1006.62 1005.76 1004.63 1003.02 1001.92 1001.96 1000.76 1001.19 1001.17 1001.83 1002.61 1003.09 1003.26 1004.57 1005.89 1006.78 1007.40 1007.09 1007.24 1007.74 1008.40 1008.97 1009.24 1009.80 1010.17 1010.59 1010.99 1011.39 1011.55 1011.98 1012.23 1012.44 1012.54 1012.66 1012.72 1012.89 1013.11 1013.41 1013.53 1013.60 1013.76
1009.70 1009.73 1010.63 1011.16 1011.43 1010.96 1009.56 1007.23 1006.28 1005.24 1004.09 1003.00 1001.49 1000.05 1000.01 1000.37 1000.74 1001.08 1001.60 1002.44 1003.27 1004.83 1005.35 1006.35 1007.00 1006.79 1006.82 1007.51 1008.14 1008.70 1009.08 1009.45 1010.03 1010.52 1010.99 1011.31 1011.57 1011.73 1012.13 1012.45 1012.53 1012.67 1012.78 1012.95 1013.17 1013.39 1013.51 1013.66 1013.74
1009.82 1010.25 1011.17 1011.23 1010.64 1009.20 1007.93 1006.85 1005.94 1004.94 1003.18 1001.84 1001.15 999.83 999.56 998.92 999.52 1000.42 1001.75 1002.65 1003.40 1004.48 1005.21 1006.02 1006.71 1006.58 1006.53 1007.36 1007.92 1008.56 1009.13 1009.47 1009.67 1010.12 1010.70 1011.09 1011.43 1011.62 1011.89 1012.23 1012.48 1012.66 1012.78 1012.88 1013.11 1013.34 1013.47 1013.57 1013.75
1009.70 1010.53 1011.34 1011.29 1009.56 1008.19 1007.37 1006.47 1005.75 1004.83 1003.31 1001.91 1001.06 1000.09 999.53 999.76 999.62 1000.49 1001.45 1002.53 1003.32 1004.54 1005.24 1006.10 1006.68 1006.58 1006.40 1006.96 1007.60 1008.06 1008.61 1009.22 1009.64 1009.88 1010.20 1010.69 1011.08 1011.51 1011.82 1012.19 1012.44 1012.64 1012.79 1012.82 1013.03 1013.25 1013.41 1013.49 1013.72
1010.10 1010.50 1011.42 1010.90 1008.97 1007.64 1006.90 1006.06 1005.60 1004.67 1003.27 1002.04 1000.95 1000.74 1000.06 1000.05 1000.02 1000.67 1001.04 1002.08 1002.86 1003.85 1004.98 1005.77 1006.36 1006.37 1006.18 1006.65 1007.34 1007.83 1008.32 1008.76 1009.48 1010.05 1010.17 1010.40 1010.70 1011.14 1011.63 1012.09 1012.32 1012.53 1012.74 1012.75 1012.94 1013.15 1013.40 1013.51 1013.74
1010.20 1010.61 1010.57 1010.01 1008.69 1007.22 1006.36 1005.46 1005.21 1004.22 1003.22 1001.74 1000.84 1000.79 1000.85 1000.87 1000.23 1000.34 1001.07 1002.27 1003.41 1004.23 1005.02 1005.83 1006.27 1006.39 1006.42 1006.56 1007.25 1007.78 1008.12 1008.62 1009.12 1009.60 1010.02 1010.29 1010.58 1010.91 1011.26 1011.79 1012.19 1012.43 1012.62 1012.67 1012.83 1013.03 1013.20 1013.36 1013.63
1009.96 1010.22 1010.18 1009.46 1008.41 1006.46 1005.68 1005.10 1004.60 1004.08 1003.04 1001.72 1000.54 1000.84 1000.80 1000.56 1001.50 1001.81 1002.33 1003.31 1004.02 1004.61 1005.20 1005.91 1006.32 1006.58 1006.78 1006.95 1007.20 1007.60 1008.04 1008.45 1008.90 1009.21 1009.71 1010.03 1010.35 1010.67 1010.89 1011.23 1011.73 1012.16 1012.31 1012.43 1012.68 1012.87 1013.08 1013.30 1013.48
1009.40 1009.98 1009.75 1008.93 1008.11 1006.21 1005.12 1005.13 1003.92 1003.74 1003.07 1002.76 1001.69 1000.81 1000.28 1000.27 1001.75 1002.48 1002.77 1004.00 1004.57 1005.12 1005.42 1005.92 1006.26 1006.65 1006.75 1007.02 1007.30 1007.59 1007.80 1008.32 1008.80 1009.06 1009.26 1009.76 1010.16 1010.55 1010.75 1010.88 1011.31 1011.80 1012.14 1012.22 1012.44 1012.68 1012.90 1013.13 1013.42
1009.59 1009.42 1008.89 1008.05 1007.40 1006.64 1005.62 1005.12 1004.35 1004.15 1003.26 1002.55 1002.56 1001.16 1001.11 1000.15 1001.52 1002.56 1003.09 1003.62 1004.37 1004.87 1005.21 1005.53 1006.00 1006.43 1006.89 1007.06 1007.28 1007.56 1007.59 1007.99 1008.43 1008.82 1009.11 1009.35 1009.80 1010.17 1010.42 1010.63 1011.01 1011.50 1011.98 1012.13 1012.27 1012.47 1012.64 1012.91 1013.22
1008.94 1008.38 1008.20 1007.68 1007.30 1006.90 1005.91 1004.62 1004.59 1004.41 1003.48 1002.82 1002.97 1002.11 1001.60 1001.52 1002.56 1002.43 1002.59 1002.87 1002.92 1003.56 1004.70 1005.30 1005.60 1006.09 1006.37 1006.90 1007.26 1007.57 1007.57 1007.83 1008.18 1008.42 1008.88 1009.18 1009.59 1010.02 1010.16 1010.48 1010.81 1011.20 1011.54 1011.93 1012.09 1012.33 1012.50 1012.65 1012.94
1009.01 1008.37 1008.00 1007.56 1007.02 1006.84 1006.12 1005.22 1004.60 1004.45 1003.23 1002.66 1002.75 1002.46 1002.30 1001.78 1002.60 1002.99 1003.27 1001.84 1002.33 1002.93 1003.52 1004.21 1004.74 1005.14 1005.71 1006.03 1006.67 1007.15 1007.30 1007.51 1007.80 1007.95 1008.36 1008.91 1009.37 1009.78 1010.27 1010.42 1010.63 1010.81 1011.06 1011.53 1011.80 1012.05 1012.15 1012.34 1012.61
1008.89 1008.34 1007.73 1007.17 1006.78 1006.40 1006.25 1005.25 1004.33 1003.17 1002.72 1002.28 1001.58 1002.27 1002.05 1002.16 1001.97 1002.26 1002.17 1002.82 1002.21 1003.01 1003.30 1003.72 1004.52 1004.67 1005.10 1005.48 1005.93 1006.52 1006.96 1006.99 1007.07 1007.49 1007.95 1008.36 1008.83 1009.20 1009.69 1009.89 1010.07 1010.30 1010.75 1010.98 1011.45 1011.69 1011.92 1012.04 1012.22
1008.80 1008.53 1007.99 1007.24 1006.69 1006.22 1006.02 1005.09 1004.63 1002.24 1002.48 1002.37 1001.46 1001.30 1001.32 1001.43 1001.55 1002.36 1002.31 1002.71 1003.17 1002.31 1002.70 1003.22 1004.03 1004.32 1004.45 1004.89 1005.62 1005.73 1005.99 1006.29 1006.79 1006.96 1007.10 1007.55 1007.72 1008.45 1008.99 1009.43 1009.68 1009.87 1010.17 1010.47 1010.69 1011.14 1011.40 1011.60 1011.93
1009.31 1008.86 1008.12 1007.24 1006.76 1006.27 1005.93 1004.64 1003.26 1003.02 1002.62 1002.17 1001.62 1000.66 1000.57 1001.06 1000.95 1001.23 1002.32 1002.58 1002.57 1002.08 1001.94 1002.63 1003.15 1003.54 1004.00 1004.18 1004.95 1005.18 1005.31 1005.79 1006.06 1006.44 1006.57 1006.77 1007.06 1007.73 1008.16 1008.71 1008.98 1009.15 1009.52 1009.98 1010.31 1010.74 1011.08 1011.36 1011.58
1009.71 1009.43 1008.89 1007.54 1006.86 1006.17 1005.96 1003.31 1003.24 1003.29 1003.13 1002.30 1001.91 1001.31 1000.88 1000.55 1000.48 1000.44 1001.01 1001.85 1001.99 1001.78 1001.70 1001.96 1002.37 1003.46 1003.32 1003.82 1004.25 1004.62 1004.50 1005.10 1005.47 1005.85 1006.12 1006.13 1006.25 1006.97 1007.59 1008.13 1008.27 1008.53 1008.98 1009.56 1010.10 1010.40 1010.79 1011.02 1011.27
1010.13 1009.83 1009.00 1008.13 1006.93 1006.31 1005.83 1004.07 1004.38 1003.92 1003.53 1002.82 1002.10 1001.63 1000.99 1000.08 1000.35 1000.30 1000.23 1001.10 1001.21 1001.72 1001.30 1001.08 1001.41 1002.08 1002.82 1003.18 1003.43 1003.85 1004.11 1004.42 1004.96 1005.25 1005.61 1005.50 1005.58 1006.09 1006.89 1007.25 1007.52 1008.00 1008.62 1009.09 1009.52 1009.95 1010.18 1010.63 1010.94
1010.52 1009.94 1009.28 1008.33 1007.44 1006.75 1005.95 1004.82 1004.98 1004.62 1004.07 1003.60 1003.01 1002.36 1001.44 1000.44 999.68 999.80 999.90 999.63 1000.45 1000.58 1001.34 1000.54 1000.14 1000.63 1001.34 1002.56 1002.86 1003.16 1003.49 1003.91 1004.36 1004.65 1004.94 1005.19 1005.14 1005.48 1006.16 1006.49 1007.01 1007.51 1008.14 1008.62 1009.07 1009.47 1009.72 1009.88 1010.12
1010.12 1009.63 1009.23 1008.51 1007.69 1007.01 1006.53 1005.32 1004.80 1004.63 1004.27 1004.01 1003.44 1002.96 1002.25 1001.66 1000.23 998.96 999.37 999.41 999.48 1000.12 1000.45 1000.64 1000.64 1000.18 1000.34 1001.91 1002.45 1002.95 1003.09 1003.35 1003.81 1004.11 1004.17 1004.45 1004.55 1004.79 1005.36 1005.95 1006.57 1006.94 1007.45 1007.75 1008.29 1008.87 1009.44 1009.72 1009.81
1009.64 1009.53 1009.20 1008.34 1007.78 1007.50 1006.85 1005.14 1004.45 1004.61 1004.37 1004.04 1003.56 1003.03 1002.43 1001.60 1000.82 1000.05 999.74 999.08 999.36 999.59 999.55 999.96 1000.05 1000.10 999.84 1000.41 1000.79 1001.22 1001.79 1002.68 1002.75 1003.12 1003.47 1003.65 1003.94 1004.22 1004.62 1005.16 1005.76 1006.17 1006.83 1007.39 1007.89 1008.28 1008.92 1009.22 1009.48
1009.66 1009.90 1009.92 1009.73 1008.84 1008.35 1007.80 1005.32 1005.12 1004.61 1004.15 1003.65 1003.32 1002.92 1002.36 1001.93 1001.09 1000.13 999.42 999.25 998.71 998.88 999.20 999.34 999.32 999.65 999.49 999.81 1000.47 1001.49 1002.32 1002.88 1003.14 1003.11 1003.15 1002.98 1003.27 1003.44 1003.83 1004.37 1004.96 1005.51 1006.14 1006.92 1007.37 1007.79 1008.24 1008.99 1009.39
1010.05 1010.18 1010.39 1010.34 1010.24 1009.90 1009.17 1006.87 1005.57 1004.87 1004.19 1003.93 1003.47 1003.06 1002.70 1001.84 1001.13 1000.31 999.68 999.20 998.25 998.03 998.03 998.46 998.87 999.22 999.40 999.64 1000.24 1000.66 1001.12 1001.99 1001.95 1001.96 1002.15 1002.31 1002.50 1002.68 1003.30 1003.84 1004.40 1004.92 1005.69 1006.42 1006.89 1007.30 1007.72 1008.24 1009.03
1010.36 1010.54 1011.07 1010.96 1010.76 1010.56 1009.63 1008.97 1005.55 1005.39 1004.15 1003.58 1003.22 1002.96 1002.25 1001.73 1001.03 1000.20 999.45 998.62 997.97 997.26 997.42 997.58 998.00 998.68 998.95 999.29 999.64 1000.05 1000.70 1000.64 1000.90 1001.42 1001.57 1002.20 1002.25 1002.29 1002.86 1003.52 1004.09 1004.77 1005.38 1005.88 1006.46 1007.02 1007.32 1007.60 1008.22
1010.53 1011.09 1011.42 1011.54 1011.30 1010.87 1009.84 1009.06 1004.81 1005.73 1004.61 1003.66 1003.26 1002.80 1002.35 1001.94 1001.20 1000.25 999.22 998.41 997.47 996.91 996.51 996.81 997.00 997.65 998.13 998.62 998.94 999.35 999.95 1000.39 1001.19 1001.32 1001.40 1002.16 1002.34 1002.40 1002.77 1003.33 1003.87 1004.51 1005.12 1005.60 1006.05 1006.38 1006.87 1007.42 1007.86
1010.86 1012.01 1012.84 1012.89 1012.50 1011.16 1009.83 1008.90 1006.47 1005.15 1004.60 1004.29 1004.08 1003.80 1003.40 1002.77 1001.89 1000.90 999.86 998.25 997.09 996.71 996.17 995.89 995.91 996.66 997.23 997.77 998.25 998.60 999.09 999.58 1000.19 1000.60 1000.97 1001.62 1002.10 1002.50 1002.91 1003.27 1003.80 1004.36 1004.81 1005.26 1005.61 1006.12 1006.60 1007.12 1007.72
1011.32 1012.27 1013.39 1013.45 1013.09 1011.71 1010.02 1008.32 1006.03 1005.10 1004.72 1004.51 1004.28 1003.94 1003.12 1002.41 1001.50 1000.47 999.43 998.30 996.65 995.83 995.74 995.43 995.66 996.06 996.54 996.98 997.42 997.79 998.40 999.04 999.55 999.83 1000.26 1000.79 1001.43 1001.89 1002.48 1003.01 1003.45 1003.94 1004.54 1004.93 1005.38 1005.87 1006.40 1006.97 1007.55
1011.13 1012.02 1012.35 1013.27 1012.93 1012.47 1010.11 1007.82 1006.00 1005.55 1005.12 1004.62 1004.02 1003.59 1002.97 1001.87 1000.89 999.89 998.55 997.01 995.38 994.76 994.82 994.74 994.97 995.29 995.75 996.13 996.70 997.21 997.73 998.42 998.95 999.18 999.66 1000.25 1000.90 1001.56 1002.24 1002.68 1003.26 1003.70 1004.16 1004.63 1005.19 1005.74 1006.44 1006.95 1007.52
1010.75 1011.46 1012.57 1013.38 1013.16 1012.00 1009.78 1008.21 1006.60 1005.87 1005.21 1004.90 1003.96 1003.38 1002.38 1001.26 1000.14 999.50 998.56 997.08 995.10 993.13 993.26 993.78 994.06 994.62 995.04 995.53 996.03 996.59 997.13 997.66 998.17 998.68 999.22 999.92 1000.66 1001.28 1001.95 1002.61 1003.04 1003.58 1004.04 1004.52 1005.13 1005.82 1006.43 1007.00 1007.52
1011.37 1011.81 1012.57 1013.21 1012.96 1011.99 1009.93 1008.19 1006.26 1005.56 1004.86 1004.89 1004.15 1003.27 1002.32 1001.01 1000.06 999.47 998.34 996.66 995.57 993.36 993.01 993.11 993.41 993.88 994.37 994.88 995.52 996.12 996.74 997.28 997.78 998.36 998.89 999.65 1000.22 1001.00 1001.68 1002.31 1002.93 1003.44 1003.99 1004.62 1005.24 1005.85 1006.42 1006.96 1007.42
1011.16 1011.56 1012.18 1012.94 1012.50 1011.66 1010.56 1006.93 1005.36 1005.23 1004.76 1004.40 1003.82 1003.43 1002.22 1001.39 999.47 998.76 997.95 997.42 995.85 994.11 993.42 993.50 993.43 993.41 993.58 994.08 994.77 995.61 996.32 996.96 997.60 998.19 998.71 999.38 999.93 1000.78 1001.52 1002.12 1002.74 1003.31 1003.89 1004.52 1005.23 1005.82 1006.27 1006.71 1007.22
Wind_Speed
5 5 1 4 5 5 5 9 5 14 8 3 9 7 8 7 9 7 2 14 21 20 17 17 19 22 23 22 20 19 18 16 15 15 15 14 14 14 14 12 13 12 12 12 10 10 9 8 6
2 3 4 2 5 0 7 7 16 7 10 19 22 7 3 3 2 9 11 14 22 19 16 15 20 22 23 22 21 19 19 17 17 16 15 14 13 13 12 11 11 11 12 11 11 9 8 8 6
1 1 4 3 4 7 7 4 4 7 15 16 8 8 8 9 4 15 8 19 23 17 16 15 22 23 24 23 22 20 20 19 18 17 16 15 14 14 12 11 10 11 11 10 10 9 8 7 6
0 4 4 2 10 8 7 13 13 15 13 9 8 3 3 7 22 10 17 19 20 17 16 18 21 22 25 23 23 21 20 19 19 18 17 16 15 14 12 12 11 11 11 11 10 10 9 8 6
1 4 1 4 10 7 8 8 8 10 11 12 15 4 9 7 10 22 21 19 20 15 13 15 20 22 24 24 23 23 22 20 19 19 18 18 15 14 13 12 12 12 12 12 11 10 9 8 7
1 3 2 6 11 9 6 8 6 6 10 11 13 9 7 5 17 19 22 21 19 20 15 15 20 22 23 23 23 22 21 21 19 18 17 17 16 15 14 13 12 13 12 12 11 10 9 8 7
4 3 6 5 9 12 8 5 8 6 8 8 4 4 4 5 13 20 20 16 15 14 15 13 13 16 20 22 21 20 20 20 19 18 17 17 16 15 14 14 13 13 13 12 11 11 11 9 8
3 4 4 6 10 14 9 5 5 5 11 6 6 6 4 2 6 9 11 10 11 11 13 11 10 10 10 12 19 19 18 19 18 18 17 16 16 15 16 15 14 15 14 13 12 12 11 10 9
1 2 8 7 11 10 14 7 14 10 9 8 6 3 7 9 9 9 15 8 9 8 10 9 9 8 8 9 12 16 18 17 17 16 17 13 7 9 12 13 15 15 15 14 13 12 11 10 10
5 6 8 6 10 9 14 18 18 17 21 14 9 9 10 16 15 13 11 11 11 12 11 12 11 11 8 8 8 8 9 8 8 7 8 6 7 7 9 11 16 15 15 14 13 13 12 11 4
5 11 6 7 6 8 16 22 17 15 18 15 3 8 6 6 9 4 10 16 20 16 11 13 13 11 12 9 6 4 4 4 5 8 7 6 5 5 6 3 5 5 13 5 8 7 5 5 4
8 10 7 9 13 13 19 20 20 17 21 19 11 7 3 0 5 5 11 19 18 17 17 15 16 15 14 8 8 7 7 6 6 8 9 6 5 5 5 4 5 5 5 6 5 4 5 6 6
8 10 10 11 13 13 14 21 22 26 21 19 20 9 4 5 6 2 3 5 7 9 10 11 11 13 13 11 8 7 7 7 8 7 8 8 7 7 6 6 6 7 5 6 6 6 6 7 7
5 5 10 7 10 8 14 19 16 28 19 17 20 15 7 6 8 7 3 2 7 10 14 14 12 11 12 11 9 9 9 7 6 7 9 12 9 8 8 7 7 6 7 7 8 8 8 7 6
6 7 8 5 3 5 6 18 22 15 11 16 17 18 13 9 8 9 12 9 10 7 11 14 16 14 12 14 11 9 7 7 7 8 10 12 11 10 9 7 7 7 7 8 7 5 4 4 5
5 1 1 4 6 5 7 24 18 12 13 20 15 16 19 11 9 9 6 10 7 8 13 13 12 12 13 12 9 8 9 8 8 8 7 12 12 11 9 7 8 7 6 7 7 6 4 5 5
3 4 4 5 6 6 7 17 6 9 11 17 18 14 13 16 9 11 10 10 11 10 12 14 13 15 14 10 7 7 7 6 7 6 7 10 12 12 10 8 7 7 6 7 7 6 6 4 4
6 6 4 3 3 2 9 15 6 7 8 8 9 13 16 18 20 9 12 10 10 11 8 13 17 18 18 12 10 4 4 5 5 7 8 9 8 12 11 8 7 9 6 6 5 6 5 4 6
7 7 6 4 5 4 9 16 13 6 6 9 11 12 13 14 18 11 10 11 10 9 15 13 9 13 10 5 4 4 8 5 5 7 9 9 8 10 11 8 8 8 9 10 10 5 6 3 4
7 5 7 4 9 10 9 21 18 10 6 8 11 13 10 12 16 18 13 11 10 9 13 12 14 12 11 10 8 4 8 5 8 8 8 9 9 9 10 10 9 11 7 6 7 6 3 3 4
5 4 6 7 12 5 7 20 12 12 7 8 8 9 9 10 13 17 19 12 11 10 12 14 15 15 15 15 7 3 4 1 3 4 3 6 10 11 12 12 10 9 7 6 5 6 7 4 2
2 6 9 11 8 3 4 16 14 14 11 8 9 8 10 13 13 14 15 17 10 12 11 14 15 15 15 14 12 10 6 6 5 5 4 5 8 10 10 11 9 7 5 6 6 5 4 5 5
5 3 4 6 8 2 5 6 8 14 19 18 15 14 16 15 14 15 16 17 17 11 10 12 12 13 12 12 11 9 6 5 2 3 4 3 5 8 10 10 8 7 5 6 7 6 6 3 4
2 4 6 5 1 5 6 7 21 9 13 13 13 17 15 16 17 16 15 15 13 11 9 12 14 11 10 10 10 10 10 8 5 4 4 4 3 4 8 8 7 6 6 7 6 6 7 6 4
6 5 4 5 3 6 1 6 14 12 15 18 8 10 11 14 13 16 20 20 16 13 10 10 14 14 13 14 13 12 12 10 11 8 6 6 4 3 7 8 7 5 6 6 6 6 6 6 5
4 7 6 5 4 11 16 9 9 8 10 1 2 5 9 12 13 17 18 19 18 15 16 12 12 13 14 14 13 11 12 9 8 8 6 7 8 8 8 8 8 7 7 6 6 5 4 6 5
3 3 7 3 8 5 9 13 11 3 6 10 9 9 11 13 15 18 20 21 21 19 15 15 13 14 13 15 12 9 10 9 9 9 9 8 7 7 9 9 8 7 7 8 7 6 6 5 5
5 4 2 1 3 6 4 9 9 7 11 10 11 9 11 13 13 15 17 19 17 11 14 12 12 14 14 10 10 11 12 12 9 9 10 11 8 9 9 8 7 7 8 8 7 5 5 6 4
4 2 2 1 3 4 6 7 7 11 9 9 13 13 14 13 11 15 16 18 18 4 5 6 9 11 10 11 10 9 8 9 9 9 10 11 11 9 10 9 8 9 9 8 7 6 6 6 6
10 6 5 4 6 3 5 10 10 6 6 9 11 16 15 11 10 13 13 17 16 8 2 3 2 6 7 9 10 9 9 9 10 10 11 11 11 9 10 10 9 10 10 7 7 7 6 7 7
Wind_Direction
320 305 269 42 61 63 249 256 277 285 337 245 290 263 166 169 155 210 228 156 135 139 158 167 169 151 145 143 144 144 143 144 143 145 146 146 140 139 141 141 144 142 140 142 143 142 141 138 136
335 334 39 83 98 82 264 245 256 288 267 293 300 244 129 162 150 125 119 160 138 144 157 163 173 153 146 146 148 150 148 150 153 153 155 156 149 150 148 151 152 150 152 154 154 152 150 151 154
298 177 83 114 167 192 234 241 244 293 296 281 276 207 142 167 81 143 119 148 137 149 154 166 175 157 147 150 152 155 156 157 157 159 163 164 162 160 160 164 165 164 166 166 163 168 168 166 169
217 26 23 112 247 252 250 299 307 309 300 284 317 144 85 223 156 157 137 142 139 151 158 169 176 160 149 153 155 158 162 162 163 165 169 172 173 170 168 173 177 179 182 179 178 182 183 178 183
346 77 42 244 255 265 283 279 292 299 295 304 328 281 134 155 121 136 142 149 148 155 157 166 177 164 155 157 160 163 165 167 170 170 171 176 176 177 176 182 187 190 195 192 190 191 193 192 197
350 120 139 236 260 274 282 285 280 268 282 302 335 321 164 130 138 153 151 160 159 156 158 167 180 172 162 159 164 167 167 168 172 175 175 178 178 179 182 189 193 200 206 204 200 196 200 201 209
164 133 215 232 266 285 274 302 281 271 293 292 263 17 311 204 167 156 157 149 150 151 153 168 180 176 167 163 167 171 169 170 173 175 179 180 181 182 185 192 199 206 210 211 208 204 204 200 210
179 124 235 224 249 275 273 287 292 283 293 314 347 330 311 179 118 111 115 119 132 143 158 164 170 173 170 169 171 174 175 175 177 178 182 181 184 189 191 192 200 209 210 212 214 211 209 209 212
75 159 225 223 239 260 300 310 302 318 345 332 311 224 229 137 103 124 120 105 127 146 165 164 165 168 169 170 177 178 179 180 183 186 184 182 181 193 198 194 202 210 214 214 217 216 214 212 222
180 186 222 230 238 289 299 298 303 321 318 314 348 5 360 125 139 151 150 158 165 173 179 174 170 171 159 175 177 179 180 178 182 184 187 176 176 188 195 200 206 212 218 220 220 221 216 218 207
226 237 246 262 275 275 283 285 302 311 299 294 309 317 18 55 356 191 168 176 183 187 169 181 178 173 168 180 172 185 180 174 180 183 188 180 179 196 205 177 202 193 220 215 220 223 214 199 199
256 264 255 257 259 262 274 289 284 283 273 283 291 264 269 125 267 277 262 187 192 179 188 181 184 176 183 169 177 186 186 188 189 199 188 177 180 191 203 186 194 182 200 189 198 203 204 198 206
256 274 266 264 260 251 257 265 275 282 278 289 289 275 228 288 281 45 127 239 170 173 173 177 179 179 183 186 178 176 200 198 197 188 190 188 190 193 190 199 190 196 182 187 197 206 208 207 210
306 315 287 266 277 283 267 265 267 269 278 281 288 286 240 227 273 127 54 157 256 162 168 164 180 188 176 180 189 195 188 193 186 195 196 198 194 196 196 202 204 194 196 194 200 203 209 213 205
285 305 313 286 265 262 283 278 256 271 300 279 275 291 289 218 251 259 165 205 180 196 157 175 181 183 187 183 199 187 189 189 193 206 198 199 197 197 194 200 201 199 193 192 201 202 192 190 202
324 262 359 317 352 275 174 259 270 282 288 283 287 274 272 276 246 251 197 184 254 193 175 176 180 190 186 195 186 197 180 193 201 203 202 202 194 198 191 198 199 195 184 190 195 196 195 202 196
319 252 266 300 241 247 213 276 326 316 283 275 276 272 277 281 233 253 261 171 194 220 199 185 179 180 188 193 191 197 183 183 200 196 207 204 198 194 190 204 195 181 183 191 188 200 191 181 193
259 266 249 227 301 5 294 292 278 294 299 302 316 316 296 276 274 234 241 260 180 201 229 196 180 184 183 199 202 185 176 200 201 210 210 202 196 190 194 201 190 182 191 186 181 179 198 174 196
263 280 289 277 238 301 281 282 287 282 298 302 300 296 296 300 287 273 222 236 237 196 203 222 225 200 171 155 161 190 210 203 225 219 211 201 204 191 189 201 188 186 200 197 188 173 176 195 166
321 319 320 293 315 312 287 282 288 287 261 273 280 285 275 294 297 285 262 219 228 203 205 205 207 207 186 189 197 186 193 210 213 212 216 204 198 187 190 188 186 190 185 179 177 162 145 169 170
5 22 342 317 326 330 303 289 299 297 286 285 278 270 288 278 291 302 291 241 219 210 188 203 195 200 197 194 176 84 90 62 156 211 210 220 201 193 188 180 186 186 178 179 177 169 163 151 189
360 335 344 329 337 282 16 287 298 303 295 291 298 307 290 294 292 290 294 282 244 218 192 190 194 192 197 187 184 186 171 181 211 184 191 229 193 180 181 177 171 158 156 169 177 174 161 133 165
219 359 332 286 278 258 230 271 278 309 295 292 292 289 291 288 286 289 289 288 260 236 197 193 192 196 190 184 185 191 188 199 176 167 183 218 185 170 166 164 156 153 165 178 173 162 150 152 144
58 11 352 319 224 244 214 214 279 266 273 279 295 290 307 328 311 298 284 281 274 248 202 186 175 196 191 188 200 193 189 193 176 188 185 191 165 149 151 152 151 156 165 171 177 165 155 166 145
77 55 341 335 336 238 6 299 271 272 275 292 324 334 320 318 328 322 316 291 279 254 224 193 183 193 197 198 204 200 200 195 195 179 177 159 155 146 162 155 157 164 174 177 155 158 149 159 165
232 170 163 268 270 299 298 251 259 297 310 281 335 293 304 317 322 311 301 290 274 259 224 201 186 195 195 201 210 204 203 202 196 178 170 173 176 168 164 163 163 171 166 156 152 138 141 152 149
264 160 208 211 248 255 262 267 280 317 345 326 313 319 312 312 315 310 307 300 266 244 219 206 198 207 202 203 205 198 192 185 189 172 163 162 158 161 160 160 170 162 147 150 142 136 144 144 148
161 210 315 316 262 256 261 280 256 311 298 284 308 294 294 299 305 312 310 310 291 231 206 192 193 199 204 201 199 202 189 186 172 155 155 162 154 158 156 157 154 144 147 140 133 130 142 146 165
325 288 83 168 170 238 310 257 216 236 247 295 304 291 283 292 313 317 300 308 314 206 167 180 177 182 178 175 176 168 170 162 150 158 159 163 153 151 158 154 144 143 143 143 135 148 152 166 170
243 207 154 129 284 262 264 269 252 237 285 265 298 292 297 305 303 287 317 301 308 295 204 204 220 184 175 170 161 164 159 148 157 161 158 153 150 150 148 146 145 146 149 144 148 158 167 169 175